STARLINK-4491 (53408 NORAD) Tracking and Keplerian Element Data

This shows tracking and keplerian element data for the satellite.

Feedback or suggestion? Click here.




ElementValue
Catalog53408
NameSTARLINK-4491
Epoch Orbit1631
Epoch Day325.13759545
Epoch Year2022
RAAN121.5607
Inclination53.2167
Eccentricity0.0001546
Argument of Perigee55.2471
Mean Anonmoly304.8667
Mean Motion15.08837078
Decay Rate-7.49E-06
L11 53408U 22097W 22325.13759545 -.00000749 00000+0 -28943-4 0 9994
L22 53408 53.2167 121.5607 0001546 55.2471 304.8667 15.08837078 16310



Live tracking and technical data element details for STARLINK-4491 (NORAD 53408). STARLINK-4491 can be tracked NOW for your location showing map with azimuth and elevation plus other details from your city location.







IsCatalogInMostPopularTable: catalog: 53408, numindb: 5
Update: records affected: 1



GetName: 53408 STARLINK-4491

Hit Count: updated at: Tue, 29 Nov 2022 00:50:32 GMT